Location: ??????
(42.0089°N, 44.3281°E)
Time: 17:04:27
(UTC+00:00)

USA 267 - Pass Details

Date: 04 June 2022
Orbit: 1101 x 1106 km, 123.0° (Epoch: 28 June)

Event Time Altitude Azimuth Distance (km) Brightness Sun altitude
Rises 22:48:01 0° 135° (SE) 3,906 6.0 -20.9°
Reaches altitude 10° 22:50:30 10° 136° (SE) 2,951 5.3 -20.7°
Maximum altitude 22:57:01 78° 223° (SW) 1,126 3.1 -20.1°
Drops below altitude 10° 23:03:35 10° 310° (NW) 2,963 5.6 -19.5°
Sets 23:06:04 0° 312° (NW) 3,924 6.3 -19.3°
